{"data":{"norad_id":63706,"intl_designator":"2025-087K","name":"STARLINK-33995","alt_names":[],"object_type":"PAYLOAD","status":"ACTIVE","operator":null,"country":"US","launch_date":"2025-04-28","launch_site_code":"AFWTR","launch_vehicle":null,"mission":null,"orbit_class":"UNKNOWN","rcs_meters":null,"size_class":null,"mass_kg":null,"dimensions":null,"purposes":["comms"],"wikipedia_slug":null,"has_3d_model":false,"image_url":null,"decayed_at":null,"tle_current":{"epoch":"2026-09-20T13:09:44.617248Z","epoch_age_seconds":148337,"freshness":"FRESH","line1":"1 63706U 25087K   26263.54843307  .00013975  00000+0  42387-3 0  9998","line2":"2 63706  53.1618  33.7283 0001106  77.6647 282.4480 15.34408241 79049","mean_motion":15.34408241,"eccentricity":0.0001106,"inclination_deg":53.1618,"raan_deg":33.7283,"arg_perigee_deg":77.6647,"mean_anomaly_deg":282.448,"bstar":0.00042387,"rev_number":7904,"period_min":93.847254043782,"perigee_km":461.92215210648,"apogee_km":463.43534054956,"semimajor_km":6840.815746328,"source":"CELESTRAK","updated_at":"2026-09-21T09:00:35.063850Z"}}}